[[{"header":{"parameterUnit":"m.s-1","parameterCategory":1,"la1":30.2991,"la2":30.254,"lo1":-89.0895,"lo2":-89.0444,"dy":0.0017,"dx":0.0017,"nx":28,"ny":28,"refTime":"2025-08-10T03:00:00:Z","depth":0,"parameterNumber":2,"parameterNumberName":"U-component_of_WINDS"},"data":[0,0,0,0,0,0,0,0,0,0,0,0,0,0,0,0,0,0,0,0,0,0,0,0,0,0,0,0,0,0,0,0,0,0,0,0,0,0,0,0,0,0,0,0,0,0,0,0,0,0,0,0,0,0,0,0,0,0,-0.5564,-0.5564,0,-0.5605,-0.5605,-0.5606,-0.56,-0.5599,-0.5598,-0.5597,-0.5642,-0.5644,-0.5646,0,0,0,0,0,0,0,0,0,0,0,0,0,-0.5483,-0.5484,-0.5564,-0.5564,-0.5565,-0.5605,-0.5605,-0.5606,-0.56,-0.5599,-0.5598,-0.5597,-0.5642,-0.5644,-0.5646,0,0,0,0,0,0,0,0,0,0,0,0,0,-0.552,-0.5485,-0.5563,-0.5566,-0.5567,-0.5605,-0.5605,-0.5606,-0.56,-0.5599,-0.5598,-0.5597,-0.5641,-0.5644,-0.5646,-0.5685,0,0,-0.5655,-0.5656,0,0,0,0,0,0,0,0,-0.5518,-0.5523,-0.5565,-0.5566,-0.5567,-0.5596,-0.5593,-0.5633,-0.56,-0.5587,-0.5597,-0.5596,-0.5628,-0.5632,-0.5642,-0.5687,-0.5689,-0.5655,-0.5657,-0.5658,-0.5659,0,0,0,0,0,0,0,-0.5515,-0.5521,-0.558,-0.5566,-0.5567,-0.5566,-0.5571,-0.5601,-0.5613,-0.5588,-0.5588,-0.5593,-0.5628,-0.5639,-0.5643,-0.569,-0.5655,-0.5658,-0.5659,-0.566,-0.577,-0.5771,0,0,0,0,0,0,-0.5512,-0.5519,-0.5579,-0.5581,-0.5539,-0.5569,-0.5573,-0.5588,-0.5613,-0.5616,-0.5594,-0.5592,-0.5635,-0.564,-0.5644,-0.5692,-0.5658,-0.5661,-0.5662,-0.5769,-0.577,-0.5772,0,0,0,0,0,0,-0.551,-0.5517,-0.5577,-0.555,-0.5558,-0.5571,-0.5587,-0.5589,-0.56,-0.5617,-0.5619,-0.5603,-0.5634,-0.5641,-0.5675,-0.5694,-0.5662,-0.5664,-0.5767,-0.5769,-0.5771,-0.5788,0,0,0,0,0,0,-0.5508,-0.5516,-0.553,-0.555,-0.5559,-0.5606,-0.5588,-0.5591,-0.5605,-0.5603,-0.5626,-0.5628,-0.5634,-0.5671,-0.5678,-0.5697,-0.5667,-0.5766,-0.5768,-0.577,-0.5786,-0.579,-0.5794,0,0,0,0,0,-0.5505,-0.5534,-0.5531,-0.5538,-0.5577,-0.5607,-0.5612,-0.5617,-0.5606,-0.5621,-0.5632,-0.5628,-0.569,-0.5675,-0.5682,-0.5703,-0.5765,-0.5768,-0.577,-0.5784,-0.5789,-0.5794,0,0,0,0,0,0,-0.5516,-0.5536,-0.5534,-0.557,-0.5587,-0.5606,-0.5625,-0.5622,-0.5644,-0.5642,-0.5648,-0.5653,-0.5688,-0.5699,-0.5681,-0.5742,-0.5726,-0.5731,-0.5734,-0.5739,-0.5743,-0.574,-0.5669,0,0,0,0,0,-0.5523,-0.5545,-0.5562,-0.5592,-0.56,-0.5611,-0.5625,-0.5627,-0.5645,-0.5652,-0.5666,-0.5684,-0.5708,-0.5724,-0.5747,-0.5787,-0.5793,-0.5805,-0.5809,-0.5812,-0.5816,-0.584,-0.5846,-0.5781,-0.5781,-0.5781,0,0,-0.5537,-0.5551,-0.5565,-0.5595,-0.5608,-0.5632,-0.5617,-0.5643,-0.5661,-0.5657,-0.569,-0.5701,-0.5722,-0.576,-0.5777,-0.577,-0.5835,-0.5816,-0.5818,-0.5821,-0.5843,-0.5849,-0.5855,-0.5783,-0.5782,-0.5782,0,0,-0.5576,-0.5588,-0.5615,-0.5628,-0.5648,-0.5655,-0.5662,-0.5682,-0.5688,-0.5722,-0.5719,-0.5741,-0.5782,-0.5798,-0.5811,-0.5856,-0.5854,-0.5863,-0.5885,-0.5908,-0.5913,-0.5917,-0.5935,-0.5941,-0.5867,-0.5867,-0.5867,0,-0.5591,-0.5626,-0.5629,-0.5655,-0.5669,-0.5665,-0.5694,-0.5707,-0.5734,-0.5745,-0.5736,-0.5787,-0.5801,-0.5843,-0.5854,-0.5865,-0.5874,-0.5861,-0.5912,-0.5916,-0.5921,-0.5938,-0.5944,-0.5868,-0.5868,-0.5868,-0.5868,0,-0.5645,-0.5669,-0.5689,-0.5715,-0.5731,-0.5758,-0.5766,-0.5782,-0.5783,-0.5792,-0.5827,-0.5843,-0.587,-0.588,-0.5881,-0.5923,-0.5918,-0.591,-0.5895,-0.5928,-0.5944,-0.595,-0.587,-0.587,-0.5869,-0.5869,0,0,-0.5693,-0.572,-0.5727,-0.5739,-0.5761,-0.578,-0.5808,-0.5833,-0.5848,-0.5866,-0.5891,-0.5925,-0.5919,-0.5934,-0.5937,-0.5957,-0.5993,-0.5947,-0.5948,-0.5957,-0.6042,-0.6049,-0.6056,-0.5991,-0.5992,-0.5993,-0.6041,0,-0.5735,-0.5782,-0.5786,-0.5829,-0.5853,-0.5849,-0.5874,-0.589,-0.5899,-0.5921,-0.5931,-0.5956,-0.5944,-0.5954,-0.5973,-0.5985,-0.6011,-0.5981,-0.6016,-0.6017,-0.6012,-0.6064,-0.6071,-0.6115,-0.6047,-0.6048,-0.6049,0,-0.579,-0.581,-0.5855,-0.5875,-0.5885,-0.5906,-0.593,-0.5951,-0.597,-0.5975,-0.5992,-0.5993,-0.6023,-0.6005,-0.6047,-0.6027,-0.6041,-0.6049,-0.6051,-0.6056,-0.6036,-0.6072,-0.6129,-0.6136,-0.6058,-0.6057,-0.6057,0,-0.5822,-0.586,-0.5893,-0.5903,-0.5926,-0.5941,-0.5952,-0.597,-0.5986,-0.6007,-0.6017,-0.6042,-0.6056,-0.6076,-0.6084,-0.607,-0.6126,-0.6109,-0.6132,-0.6132,-0.6146,-0.6145,-0.6207,-0.6152,-0.6152,-0.6152,-0.6152,0,-0.587,-0.5898,-0.5908,-0.5928,-0.596,-0.5964,-0.5997,-0.6006,-0.6023,-0.6046,-0.6044,-0.6066,-0.6074,-0.6098,-0.6104,-0.6139,-0.6145,-0.6151,-0.6153,-0.6152,-0.6152,-0.6163,-0.6161,-0.6154,-0.6153,-0.6153,-0.6153,0,-0.5912,-0.5919,-0.5955,-0.5973,-0.5979,-0.6002,-0.6018,-0.6039,-0.6046,-0.6076,-0.6083,-0.6096,-0.6124,-0.6133,-0.6167,-0.6172,-0.6213,-0.6211,-0.6206,-0.6207,-0.6231,-0.6229,-0.6304,-0.6315,-0.6251,-0.6251,-0.6252,0,-0.5942,-0.5964,-0.5985,-0.6,-0.6011,-0.6034,-0.605,-0.6055,-0.6072,-0.6096,-0.6114,-0.6141,-0.6163,-0.6208,-0.6222,-0.6248,-0.6248,-0.6272,-0.6252,-0.6251,-0.625,-0.625,-0.6253,-0.6277,-0.6277,-0.6278,-0.6278,0,-0.5996,-0.5999,-0.602,-0.6044,-0.6062,-0.6081,-0.6099,-0.6112,-0.612,-0.6139,-0.6167,-0.6184,-0.6219,-0.6247,-0.6273,-0.6286,-0.6284,-0.6284,-0.6292,-0.6292,-0.6289,-0.6293,-0.6218,-0.6283,-0.6282,-0.6282,-0.6282,-0.6282,-0.6035,-0.6054,-0.6072,-0.6097,-0.6111,-0.6128,-0.6148,-0.6158,-0.6182,-0.6209,-0.6211,-0.6242,-0.6262,-0.6298,-0.6311,-0.6337,-0.633,-0.634,-0.6343,-0.6346,-0.6349,-0.6283,-0.6341,-0.6341,-0.6341,-0.6341,-0.6341,0,-0.609,-0.6101,-0.6124,-0.6149,-0.6169,-0.6164,-0.6184,-0.6201,-0.6228,-0.6246,-0.6268,-0.6301,-0.6328,-0.6343,-0.6371,-0.6388,-0.6388,-0.6396,-0.6395,-0.6399,-0.6352,-0.6344,-0.6395,-0.6395,-0.6395,-0.6395,-0.6395,-0.6395,-0.6121,-0.6155,-0.6159,-0.62,-0.6211,-0.6241,-0.6253,-0.6269,-0.6284,-0.632,-0.6343,-0.6352,-0.637,-0.6398,-0.6424,-0.6428,-0.6439,-0.6447,-0.645,-0.6407,-0.6402,-0.6396,-0.6389,-0.6449,-0.6449,-0.6495,-0.6496,-0.6496]},{"header":{"parameterUnit":"m.s-1","parameterCategory":1,"la1":30.2991,"la2":30.254,"lo1":-89.0895,"lo2":-89.0444,"dy":0.0017,"dx":0.0017,"nx":28,"ny":28,"refTime":"2025-08-10T03:00:00:Z","depth":0,"parameterNumber":3,"parameterNumberName":"V-component_of_WINDS"},"data":[0,0,0,0,0,0,0,0,0,0,0,0,0,0,0,0,0,0,0,0,0,0,0,0,0,0,0,0,0,0,0,0,0,0,0,0,0,0,0,0,0,0,0,0,0,0,0,0,0,0,0,0,0,0,0,0,0,0,2.8272,2.8272,0,2.8233,2.8232,2.8232,2.8217,2.8218,2.8218,2.8218,2.8172,2.817,2.8169,0,0,0,0,0,0,0,0,0,0,0,0,0,2.8332,2.8331,2.8272,2.8272,2.8272,2.8233,2.8232,2.8232,2.8217,2.8218,2.8218,2.8218,2.8172,2.8171,2.8169,0,0,0,0,0,0,0,0,0,0,0,0,0,2.83,2.8331,2.8273,2.826,2.8258,2.8233,2.8232,2.8231,2.8217,2.8218,2.8218,2.8218,2.8173,2.8171,2.8169,2.8151,0,0,2.8162,2.8161,0,0,0,0,0,0,0,0,2.8302,2.8298,2.8262,2.8261,2.8259,2.823,2.8236,2.8204,2.8217,2.8233,2.8218,2.8218,2.8191,2.8187,2.8179,2.8149,2.8147,2.8162,2.8161,2.816,2.8159,0,0,0,0,0,0,0,2.8304,2.83,2.8257,2.8262,2.826,2.8255,2.8251,2.823,2.8211,2.8231,2.823,2.8226,2.819,2.8181,2.8178,2.8146,2.8162,2.816,2.8159,2.8158,2.81,2.81,0,0,0,0,0,0,2.8309,2.8302,2.8258,2.8255,2.8282,2.8254,2.8249,2.8239,2.8211,2.8207,2.8226,2.8226,2.8184,2.818,2.8176,2.8154,2.816,2.8158,2.8157,2.81,2.81,2.81,0,0,0,0,0,0,2.8311,2.8306,2.8259,2.8278,2.8272,2.8252,2.8242,2.8238,2.823,2.8207,2.8203,2.8221,2.8184,2.8179,2.8158,2.8152,2.8157,2.8155,2.8101,2.81,2.81,2.8109,0,0,0,0,0,0,2.8313,2.8306,2.83,2.8278,2.8271,2.8243,2.8241,2.8237,2.8227,2.8226,2.8201,2.8197,2.8184,2.8161,2.8156,2.8149,2.8154,2.8101,2.81,2.81,2.8109,2.8109,2.8109,0,0,0,0,0,2.8315,2.8303,2.83,2.8295,2.8264,2.8243,2.8239,2.8226,2.8226,2.822,2.8205,2.8198,2.8154,2.8159,2.8153,2.8146,2.8101,2.8101,2.81,2.8109,2.8109,2.8109,0,0,0,0,0,0,2.8323,2.83,2.8296,2.8278,2.8263,2.8241,2.8232,2.8226,2.8209,2.8208,2.8191,2.8186,2.8166,2.8154,2.816,2.8127,2.8127,2.8125,2.8136,2.8136,2.8136,2.8139,2.8152,0,0,0,0,0,2.8323,2.831,2.829,2.8275,2.8268,2.8251,2.8242,2.8234,2.8216,2.8209,2.8193,2.8175,2.8158,2.8146,2.8128,2.8108,2.8102,2.81,2.8099,2.8099,2.8098,2.8086,2.8085,2.8097,2.8097,2.8097,0,0,2.8322,2.8308,2.83,2.8277,2.8264,2.8249,2.8246,2.823,2.8219,2.8206,2.8186,2.8174,2.8152,2.8132,2.8122,2.8121,2.8093,2.8099,2.8099,2.8097,2.8085,2.8084,2.8083,2.8097,2.8097,2.8097,0,0,2.8313,2.8302,2.8288,2.8276,2.8258,2.8247,2.8244,2.8223,2.8215,2.8195,2.8185,2.8171,2.814,2.8126,2.8115,2.8102,2.8094,2.8096,2.8095,2.8084,2.8083,2.8082,2.8077,2.8075,2.8095,2.8095,2.8095,0,2.8314,2.8293,2.8282,2.8267,2.8257,2.8247,2.8233,2.8221,2.8197,2.819,2.819,2.8152,2.8137,2.8113,2.811,2.8101,2.8096,2.8098,2.8084,2.8083,2.8082,2.8077,2.8075,2.8095,2.8095,2.8095,2.8095,0,2.8295,2.828,2.8272,2.8251,2.824,2.8225,2.8211,2.8201,2.8193,2.8182,2.8161,2.8144,2.8122,2.8116,2.8108,2.8091,2.8091,2.8088,2.8087,2.8081,2.8076,2.8074,2.8096,2.8095,2.8095,2.8095,0,0,2.8289,2.8264,2.826,2.8251,2.8231,2.8219,2.8204,2.8185,2.8176,2.816,2.8146,2.8122,2.8119,2.8106,2.8096,2.8087,2.8077,2.8084,2.8084,2.8083,2.8057,2.8059,2.8057,2.8073,2.8072,2.8072,2.8059,0,2.8277,2.8252,2.8242,2.822,2.8207,2.8198,2.8184,2.817,2.8159,2.8145,2.8132,2.8115,2.8113,2.8105,2.8095,2.8081,2.8072,2.8082,2.8058,2.8058,2.8064,2.8055,2.8057,2.8045,2.8057,2.8056,2.8056,0,2.8259,2.8245,2.8224,2.8206,2.8199,2.8188,2.817,2.8157,2.814,2.8133,2.812,2.8111,2.8094,2.8095,2.807,2.8077,2.8067,2.8059,2.8058,2.8055,2.8056,2.8051,2.8041,2.8039,2.8053,2.8053,2.8053,0,2.8257,2.8232,2.8216,2.8209,2.8187,2.818,2.817,2.8153,2.8143,2.8127,2.812,2.8101,2.8091,2.8076,2.8062,2.8065,2.8039,2.8039,2.8031,2.8032,2.8026,2.8026,2.8014,2.802,2.802,2.802,2.802,0,2.8244,2.8231,2.8215,2.8205,2.819,2.8178,2.8163,2.8153,2.8138,2.8125,2.8115,2.8103,2.8086,2.8071,2.8059,2.8041,2.8036,2.8029,2.8026,2.8029,2.803,2.8022,2.8022,2.802,2.802,2.802,2.802,0,2.8239,2.8228,2.8209,2.8192,2.8187,2.8176,2.816,2.8149,2.8139,2.8122,2.8118,2.8101,2.8083,2.8068,2.8043,2.8036,2.8016,2.8013,2.8022,2.8021,2.8014,2.8015,2.7995,2.7992,2.8002,2.8001,2.8001,0,2.8231,2.8221,2.8203,2.8194,2.8186,2.8172,2.8162,2.815,2.8139,2.812,2.8111,2.8093,2.8078,2.8049,2.8033,2.8015,2.801,2.8005,2.8007,2.8012,2.801,2.8011,2.8009,2.8004,2.8004,2.8004,2.8004,0,2.8219,2.8214,2.8201,2.8186,2.8175,2.8162,2.8149,2.8142,2.8127,2.8116,2.8099,2.8087,2.8063,2.8045,2.8025,2.8013,2.8006,2.8004,2.8001,2.8004,2.801,2.8007,2.8021,2.8004,2.8004,2.8004,2.8004,2.8004,2.8212,2.8203,2.8189,2.8174,2.8164,2.8152,2.8141,2.813,2.8116,2.8097,2.8091,2.8073,2.8056,2.8029,2.8017,2.8002,2.8001,2.7997,2.7996,2.7995,2.7995,2.8014,2.7998,2.7998,2.7998,2.7998,2.7998,0,2.8199,2.819,2.8177,2.816,2.8148,2.8145,2.813,2.812,2.8105,2.8091,2.8077,2.8057,2.804,2.8023,2.8005,2.7996,2.7992,2.7991,2.7991,2.7988,2.7997,2.8001,2.7994,2.7994,2.7994,2.7994,2.7994,2.7994,2.819,2.8175,2.8169,2.8148,2.8138,2.8122,2.8114,2.8103,2.8092,2.8071,2.8057,2.8047,2.8032,2.8012,2.7996,2.7991,2.7984,2.7984,2.7979,2.7987,2.7988,2.7988,2.7992,2.7983,2.7983,2.7971,2.7971,2.7971]}]]